TimeEDT,TemperatureF,Dew PointF,Humidity,Sea Level PressureIn,VisibilityMPH,Wind Direction,Wind SpeedMPH,Gust SpeedMPH,PrecipitationIn,Events,Conditions,WindDirDegrees,DateUTC
12:15 AM,69.8,51.8,53,29.78,10.0,South,17.3,23.0,N/A,,Clear,170,2013-04-19 04:15:00
12:35 AM,69.8,51.8,53,29.77,10.0,South,17.3,25.3,N/A,,Clear,170,2013-04-19 04:35:00
12:55 AM,68.0,51.8,56,29.77,10.0,SSE,13.8,18.4,N/A,,Partly Cloudy,160,2013-04-19 04:55:00
1:15 AM,68.0,51.8,56,29.76,10.0,SSE,11.5,17.3,N/A,,Scattered Clouds,160,2013-04-19 05:15:00
1:35 AM,66.2,51.8,60,29.74,10.0,SSE,10.4,21.9,N/A,,Clear,160,2013-04-19 05:35:00
1:55 AM,66.2,51.8,60,29.73,10.0,SSE,15.0,19.6,N/A,,Clear,160,2013-04-19 05:55:00
2:15 AM,66.2,51.8,60,29.72,10.0,SSE,15.0,20.7,N/A,,Clear,160,2013-04-19 06:15:00
2:35 AM,66.2,51.8,60,29.71,10.0,SSE,16.1,-,N/A,,Clear,160,2013-04-19 06:35:00
2:55 AM,66.2,51.8,60,29.71,10.0,South,16.1,20.7,N/A,,Clear,170,2013-04-19 06:55:00
3:15 AM,66.2,51.8,60,29.70,10.0,South,16.1,21.9,N/A,,Clear,170,2013-04-19 07:15:00
3:35 AM,66.2,50.0,56,29.69,10.0,South,15.0,20.7,N/A,,Clear,170,2013-04-19 07:35:00
3:55 AM,64.4,51.8,64,29.68,10.0,South,15.0,-,N/A,,Clear,170,2013-04-19 07:55:00
4:15 AM,64.4,50.0,59,29.67,10.0,South,15.0,24.2,N/A,,Clear,170,2013-04-19 08:15:00
4:35 AM,64.4,51.8,64,29.67,10.0,SSE,15.0,-,N/A,,Clear,160,2013-04-19 08:35:00
4:55 AM,64.4,50.0,59,29.66,10.0,SSE,15.0,19.6,N/A,,Clear,160,2013-04-19 08:55:00
5:15 AM,64.4,51.8,64,29.66,10.0,South,12.7,19.6,N/A,,Clear,170,2013-04-19 09:15:00
5:35 AM,64.4,51.8,64,29.65,10.0,SSE,16.1,20.7,N/A,,Clear,160,2013-04-19 09:35:00
5:55 AM,64.4,51.8,64,29.64,10.0,SSE,18.4,24.2,N/A,,Clear,160,2013-04-19 09:55:00
6:15 AM,64.4,50.0,59,29.63,10.0,SSE,16.1,24.2,N/A,,Clear,160,2013-04-19 10:15:00
6:55 AM,64.4,51.8,64,29.61,10.0,SSE,12.7,19.6,N/A,,Clear,150,2013-04-19 10:55:00
7:15 AM,64.4,51.8,64,29.61,10.0,SSE,16.1,26.5,N/A,,Clear,160,2013-04-19 11:15:00
7:35 AM,64.4,51.8,64,29.61,10.0,SSE,16.1,24.2,N/A,,Mostly Cloudy,150,2013-04-19 11:35:00
7:55 AM,64.4,51.8,64,29.60,10.0,SSE,16.1,26.5,N/A,,Scattered Clouds,160,2013-04-19 11:55:00
8:15 AM,64.4,51.8,64,29.59,10.0,SSE,19.6,29.9,N/A,,Partly Cloudy,160,2013-04-19 12:15:00
8:35 AM,66.2,51.8,60,29.58,10.0,SSE,18.4,24.2,N/A,,Clear,160,2013-04-19 12:35:00
8:55 AM,66.2,53.6,64,29.56,10.0,SSE,18.4,27.6,N/A,,Scattered Clouds,160,2013-04-19 12:55:00
9:15 AM,66.2,53.6,64,29.56,10.0,South,17.3,26.5,N/A,,Mostly Cloudy,170,2013-04-19 13:15:00
9:35 AM,66.2,53.6,64,29.55,10.0,SSE,23.0,33.4,N/A,,Overcast,160,2013-04-19 13:35:00
9:55 AM,66.2,53.6,64,29.54,10.0,SSE,21.9,32.2,N/A,,Overcast,160,2013-04-19 13:55:00
10:15 AM,64.4,53.6,68,29.53,10.0,SSE,21.9,31.1,N/A,,Overcast,160,2013-04-19 14:15:00
10:55 AM,64.4,55.4,73,29.53,10.0,South,21.9,32.2,N/A,,Overcast,170,2013-04-19 14:55:00
11:15 AM,62.6,55.4,77,29.54,10.0,South,20.7,32.2,0.01,,Overcast,170,2013-04-19 15:15:00
11:35 AM,62.6,55.4,77,29.52,10.0,South,24.2,33.4,0.03,,Overcast,170,2013-04-19 15:35:00
11:55 AM,62.6,57.2,82,29.50,10.0,SSE,19.6,29.9,0.05,,Overcast,160,2013-04-19 15:55:00
12:15 PM,62.6,57.2,82,29.50,10.0,South,21.9,29.9,0.01,,Overcast,170,2013-04-19 16:15:00
12:35 PM,62.6,57.2,82,29.49,9.0,SSE,17.3,31.1,0.02,,Overcast,160,2013-04-19 16:35:00
12:55 PM,62.6,57.2,82,29.47,10.0,SSE,16.1,24.2,0.02,,Overcast,160,2013-04-19 16:55:00
1:15 PM,53.6,50.0,88,29.57,5.0,West,21.9,32.2,0.22,,Overcast,260,2013-04-19 17:15:00
1:35 PM,51.8,48.2,88,29.57,5.0,WSW,16.1,25.3,0.24,,Overcast,240,2013-04-19 17:35:00
1:55 PM,50.0,46.4,87,29.57,8.0,West,19.6,27.6,0.26,,Overcast,270,2013-04-19 17:55:00
2:15 PM,48.2,44.6,87,29.59,8.0,WSW,16.1,25.3,0.01,,Overcast,250,2013-04-19 18:15:00
2:35 PM,46.4,44.6,93,29.60,10.0,WSW,13.8,24.2,0.03,,Overcast,250,2013-04-19 18:35:00
2:55 PM,46.4,42.8,87,29.62,10.0,WSW,15.0,20.7,0.05,,Overcast,250,2013-04-19 18:55:00
3:15 PM,46.4,41.0,81,29.62,9.0,WSW,13.8,26.5,0.01,,Mostly Cloudy,240,2013-04-19 19:15:00
3:35 PM,48.2,42.8,82,29.63,10.0,WSW,16.1,20.7,0.01,,Overcast,250,2013-04-19 19:35:00
3:55 PM,48.2,39.2,71,29.64,10.0,WSW,18.4,25.3,0.01,,Overcast,240,2013-04-19 19:55:00
4:15 PM,48.2,39.2,71,29.64,10.0,WSW,16.1,25.3,N/A,,Overcast,240,2013-04-19 20:15:00
4:35 PM,46.4,37.4,71,29.66,10.0,WSW,16.1,23.0,N/A,,Overcast,240,2013-04-19 20:35:00
4:55 PM,46.4,35.6,66,29.67,10.0,WSW,15.0,27.6,N/A,,Overcast,240,2013-04-19 20:55:00
5:15 PM,46.4,37.4,71,29.68,10.0,West,11.5,-,N/A,,Overcast,260,2013-04-19 21:15:00
5:35 PM,46.4,33.8,62,29.70,10.0,SW,13.8,25.3,N/A,,Mostly Cloudy,230,2013-04-19 21:35:00
5:55 PM,46.4,33.8,62,29.72,10.0,WSW,19.6,26.5,N/A,,Mostly Cloudy,240,2013-04-19 21:55:00
6:15 PM,44.6,33.8,66,29.72,10.0,West,10.4,24.2,N/A,,Overcast,260,2013-04-19 22:15:00
6:35 PM,44.6,33.8,66,29.72,10.0,WSW,17.3,26.5,N/A,,Overcast,240,2013-04-19 22:35:00
6:55 PM,44.6,32.0,61,29.72,10.0,SW,16.1,24.2,N/A,,Overcast,230,2013-04-19 22:55:00
7:15 PM,44.6,30.2,57,29.73,10.0,WSW,16.1,24.2,N/A,,Overcast,240,2013-04-19 23:15:00
7:35 PM,44.6,30.2,57,29.73,10.0,WSW,15.0,25.3,N/A,,Overcast,240,2013-04-19 23:35:00
7:55 PM,42.8,30.2,61,29.74,10.0,West,13.8,18.4,N/A,,Overcast,260,2013-04-19 23:55:00
8:15 PM,42.8,30.2,61,29.75,10.0,WSW,12.7,27.6,N/A,,Overcast,240,2013-04-20 00:15:00
8:35 PM,42.8,28.4,57,29.76,10.0,WSW,16.1,23.0,N/A,,Overcast,240,2013-04-20 00:35:00
8:55 PM,42.8,28.4,57,29.77,10.0,WSW,10.4,31.1,N/A,,Overcast,250,2013-04-20 00:55:00
9:15 PM,41.0,28.4,61,29.78,10.0,WSW,17.3,25.3,N/A,,Overcast,250,2013-04-20 01:15:00
9:35 PM,41.0,28.4,61,29.79,10.0,WSW,10.4,25.3,N/A,,Overcast,250,2013-04-20 01:35:00
9:55 PM,41.0,26.6,57,29.79,10.0,SW,17.3,28.8,N/A,,Overcast,220,2013-04-20 01:55:00
10:15 PM,41.0,26.6,57,29.80,10.0,WSW,17.3,27.6,N/A,,Overcast,240,2013-04-20 02:15:00
10:35 PM,41.0,26.6,57,29.81,10.0,WSW,20.7,25.3,N/A,,Overcast,240,2013-04-20 02:35:00
10:55 PM,39.2,26.6,61,29.81,10.0,West,11.5,17.3,N/A,,Overcast,260,2013-04-20 02:55:00
11:15 PM,39.2,28.4,65,29.81,10.0,West,9.2,16.1,N/A,,Overcast,260,2013-04-20 03:15:00
11:35 PM,39.2,28.4,65,29.82,10.0,WSW,13.8,21.9,N/A,,Overcast,250,2013-04-20 03:35:00
11:55 PM,39.2,28.4,65,29.82,10.0,SW,15.0,24.2,N/A,,Overcast,230,2013-04-20 03:55:00